Change the Weather History Date:

Thursday, October 4, 2012

  Actual Average Record
Temperature  
Mean Temperature 39 °F -  
Max Temperature 44 °F - - ()
Min Temperature 35 °F - - ()
Degree Days  
Heating Degree Days 26    
Moisture  
Dew Point 38 °F    
Average Humidity 92    
Maximum Humidity 100    
Minimum Humidity 76    
Precipitation  
Precipitation 0.24 in - - ()
Sea Level Pressure  
Sea Level Pressure 29.66 in    
Wind  
Wind Speed 15 mph (ENE)    
Max Wind Speed 25 mph    
Max Gust Speed 33 mph    
Visibility 7 miles    
Events Rain    
T = Trace of Precipitation, MM = Missing Value Source: NWS Daily Summary

Daily Weather History Graph

Daily Weather History Graph

Search for Another Location

Airport or City:

Trip Planner

Search our weather history database for the weather conditions in past years. The results will help you decide how hot, cold, wet, or windy it might be!

Date:

Astronomy

Oct. 04, 2012 Rise Set
Actual Time 9:24 AM AKDT 8:07 PM AKDT
Civil Twilight 8:29 AM AKDT 9:02 PM AKDT
Nautical Twilight 7:24 AM AKDT 10:06 PM AKDT
Astronomical Twilight 6:13 AM AKDT 11:16 PM AKDT
Moon 8:03 PM AKDT (10/4) 4:39 PM AKDT (10/4)
Length of Visible Light 12h 33m
Length of Day
10h 43m
Waning Gibbous, 81% of the Moon is Illuminated
Oct 4
Waning Gibbous
Oct 7
Last Quarter
Oct 15
New
Oct 21
First Quarter
Oct 29
Full

Hourly Weather History & Observations

Time (AKDT) Temp. Windchill Dew Point Humidity Pressure Visibility Wind Dir Wind Speed Gust Speed Precip Events Conditions
12:44 AM 35.6 °F 28.0 °F 33.8 °F 93% 29.86 in 10.0 mi NE 10.4 mph - N/A   Mostly Cloudy
12:53 AM 35.1 °F 27.4 °F 33.1 °F 92% 29.86 in 10.0 mi NE 10.4 mph - N/A   Mostly Cloudy
1:53 AM 36.0 °F 27.5 °F 34.0 °F 93% 29.85 in 10.0 mi NE 12.7 mph - N/A   Overcast
2:53 AM 36.0 °F 27.1 °F 33.1 °F 89% 29.83 in 10.0 mi NE 13.8 mph - N/A   Overcast
3:53 AM 36.0 °F 26.7 °F 33.1 °F 89% 29.79 in 10.0 mi NE 15.0 mph - N/A   Clear
4:53 AM 36.0 °F 27.5 °F 33.1 °F 89% 29.77 in 10.0 mi NNE 12.7 mph - N/A   Partly Cloudy
5:53 AM 37.0 °F 28.1 °F 34.0 °F 89% 29.74 in 10.0 mi NE 15.0 mph - N/A   Clear
6:53 AM 39.9 °F 30.5 °F 35.1 °F 83% 29.71 in 10.0 mi ENE 19.6 mph - N/A   Clear
7:53 AM 41.0 °F 31.1 °F 35.1 °F 79% 29.69 in 10.0 mi ENE 23.0 mph - N/A   Clear
8:53 AM 42.1 °F 32.3 °F 35.1 °F 76% 29.68 in 10.0 mi ENE 24.2 mph - N/A   Mostly Cloudy
9:53 AM 42.1 °F 33.3 °F 35.1 °F 76% 29.66 in 10.0 mi ENE 19.6 mph - 0.00 in   Overcast
10:53 AM 41.0 °F 32.2 °F 36.0 °F 82% 29.64 in 5.0 mi ENE 18.4 mph - 0.04 in Rain Rain
11:53 AM 39.9 °F 29.7 °F 37.0 °F 89% 29.62 in 4.0 mi ENE 23.0 mph - 0.05 in Rain Light Rain
12:53 PM 39.9 °F 29.2 °F 37.0 °F 89% 29.61 in 6.0 mi ENE 25.3 mph 33.4 mph 0.01 in Rain Light Rain
1:29 PM 39.2 °F 29.0 °F 37.4 °F 93% 29.60 in 7.0 mi ENE 21.9 mph - 0.00 in Rain Light Rain
1:53 PM 39.9 °F 30.2 °F 37.9 °F 93% 29.60 in 3.0 mi East 20.7 mph - 0.01 in Rain Light Rain
2:05 PM 39.2 °F 29.8 °F 37.4 °F 93% 29.60 in 2.5 mi East 18.4 mph - 0.00 in Rain Light Rain
2:17 PM 39.2 °F 30.8 °F 39.2 °F 100% 29.60 in 1.5 mi East 15.0 mph - 0.01 in Rain Light Rain
2:39 PM 41.0 °F 32.5 °F 39.2 °F 93% 29.59 in 2.0 mi East 17.3 mph - 0.02 in Rain Light Rain
2:53 PM 41.0 °F 32.8 °F 39.0 °F 93% 29.60 in 4.0 mi East 16.1 mph - 0.02 in Rain Light Rain
3:03 PM 41.0 °F 32.8 °F 39.2 °F 93% 29.59 in 7.0 mi East 16.1 mph 24.2 mph 0.01 in Rain Light Rain
3:53 PM 41.0 °F 32.8 °F 39.9 °F 96% 29.58 in 4.0 mi East 16.1 mph - 0.04 in Rain Light Rain
4:53 PM 42.1 °F 34.9 °F 42.1 °F 100% 29.57 in 7.0 mi East 13.8 mph - 0.03 in Rain Light Rain
5:53 PM 42.1 °F 34.5 °F 42.1 °F 100% 29.58 in 8.0 mi East 15.0 mph - 0.00 in   Overcast
6:36 PM 42.8 °F 35.4 °F 42.8 °F 100% 29.58 in 7.0 mi ESE 15.0 mph - 0.00 in Rain Light Rain
6:53 PM 43.0 °F 36.0 °F 43.0 °F 100% 29.58 in 7.0 mi ESE 13.8 mph - 0.01 in Rain Light Rain
7:53 PM 43.0 °F 35.7 °F 43.0 °F 100% 29.59 in 5.0 mi SE 15.0 mph 20.7 mph 0.01 in Rain Light Rain
8:53 PM 43.0 °F 36.0 °F 43.0 °F 100% 29.61 in 9.0 mi SE 13.8 mph 19.6 mph 0.00 in   Overcast
9:53 PM 43.0 °F 35.7 °F 42.1 °F 97% 29.62 in 8.0 mi SE 15.0 mph - 0.01 in   Overcast
10:53 PM 42.1 °F 37.1 °F 41.0 °F 96% 29.64 in 8.0 mi SE 8.1 mph - 0.00 in   Overcast
11:53 PM 41.0 °F 36.4 °F 39.9 °F 96% 29.64 in 10.0 mi East 6.9 mph - 0.01 in   Mostly Cloudy